Vernon, TX

9:01 AM CDT on August 27, 2016 (GMT -0500)
Vernon

Weather History for KF05 - July, 2013

Change the Weather History Date:

Friday, July 12, 2013

  Actual Average (KLTS) Record (KLTS)
Temperature  
Mean Temperature 90 °F -  
Max Temperature 104 °F 95 °F 107 °F (2001)
Min Temperature 77 °F 70 °F 64 °F (1999)
Cooling Degree Days 26    
Growing Degree Days 40 (Base 50)    
Moisture  
Dew Point 59 °F    
Average Humidity 35    
Maximum Humidity 61    
Minimum Humidity 18    
Precipitation  
Precipitation 0.00 in - - ()
Sea Level Pressure  
Sea Level Pressure 29.93 in    
Wind  
Wind Speed 9 mph (SE)    
Max Wind Speed 16 mph    
Max Gust Speed 21 mph    
Visibility 10 miles    
Events      
Averages and records for this station are not official NWS values.
T = Trace of Precipitation, MM = Missing Value Source: NWS Daily Summary

Daily Weather History Graph

Daily Weather History Graph

Search for Another Location

Airport or City:

Trip Planner

Search our weather history database for the weather conditions in past years. The results will help you decide how hot, cold, wet, or windy it might be!

Date:

Astronomy

Jul. 12, 2013 Rise Set
Actual Time 6:34 AM CDT 8:50 PM CDT
Civil Twilight 6:06 AM CDT 9:19 PM CDT
Nautical Twilight 5:30 AM CDT 9:54 PM CDT
Astronomical Twilight 4:52 AM CDT 10:32 PM CDT
Moon 10:39 AM CDT (7/12) 11:16 PM CDT (7/12)
Length of Visible Light 15h 13m
Length of Day
14h 15m
Waxing Crescent, 17% of the Moon is Illuminated
Jul 12
Waxing Crescent
Jul 15
First Quarter
Jul 22
Full
Jul 29
Last Quarter
Aug 6
New

Hourly Weather History & Observations

Time (CDT) Temp. Heat Index Dew Point Humidity Pressure Visibility Wind Dir Wind Speed Gust Speed Precip Events Conditions
12:15 AM 86.4 °F 86.8 °F 62.1 °F 44% 29.94 in 10.0 mi SE 12.7 mph - N/A   Clear
12:35 AM 86.9 °F 87.2 °F 62.2 °F 43% 29.94 in 10.0 mi SE 11.5 mph - N/A   Clear
12:55 AM 87.4 °F 88.0 °F 62.2 °F 43% 29.95 in 10.0 mi SE 12.7 mph - N/A   Clear
1:15 AM 87.6 °F 87.9 °F 61.9 °F 42% 29.95 in 10.0 mi SSE 9.2 mph - N/A   Clear
1:35 AM 87.4 °F 87.7 °F 61.7 °F 42% 29.95 in 10.0 mi SSE 11.5 mph - N/A   Clear
1:55 AM 86.9 °F 87.2 °F 61.9 °F 43% 29.95 in 10.0 mi SSE 9.2 mph - N/A   Clear
2:15 AM 86.4 °F 86.5 °F 61.7 °F 43% 29.95 in 10.0 mi SE 8.1 mph - N/A   Clear
2:35 AM 85.6 °F 86.1 °F 62.1 °F 45% 29.94 in 10.0 mi SE 4.6 mph - N/A   Clear
2:55 AM 85.1 °F 85.7 °F 62.4 °F 46% 29.94 in 10.0 mi ESE 4.6 mph - N/A   Clear
3:15 AM 84.4 °F 85.0 °F 62.4 °F 47% 29.93 in 10.0 mi ESE 5.8 mph - N/A   Clear
3:35 AM 83.7 °F 84.5 °F 62.4 °F 49% 29.93 in 10.0 mi SE 3.5 mph - N/A   Clear
3:55 AM 82.6 °F 83.6 °F 62.8 °F 51% 29.94 in 10.0 mi SE 4.6 mph - N/A   Clear
4:15 AM 81.9 °F 82.9 °F 62.8 °F 52% 29.94 in 10.0 mi ESE 4.6 mph - N/A   Clear
4:35 AM 81.5 °F 82.7 °F 62.8 °F 53% 29.95 in 10.0 mi ESE 3.5 mph - N/A   Clear
4:55 AM 80.6 °F 81.8 °F 62.6 °F 54% 29.94 in 10.0 mi ESE 4.6 mph - N/A   Clear
5:15 AM 79.7 °F - 62.6 °F 56% 29.94 in 10.0 mi East 3.5 mph - N/A   Clear
5:35 AM 79.0 °F - 62.6 °F 57% 29.94 in 10.0 mi ESE 4.6 mph - N/A   Clear
5:55 AM 78.6 °F - 62.8 °F 58% 29.94 in 10.0 mi ESE 3.5 mph - N/A   Clear
6:15 AM 78.1 °F - 62.8 °F 59% 29.94 in 10.0 mi Calm Calm - N/A   Clear
6:35 AM 77.9 °F - 63.0 °F 60% 29.95 in 10.0 mi ESE 3.5 mph - N/A   Clear
6:55 AM 77.4 °F - 63.0 °F 61% 29.95 in 10.0 mi East 4.6 mph - N/A   Clear
7:15 AM 77.4 °F - 62.8 °F 61% 29.95 in 10.0 mi SE 3.5 mph - N/A   Clear
7:35 AM 78.4 °F - 63.5 °F 60% 29.95 in 10.0 mi SE 4.6 mph - N/A   Clear
7:55 AM 79.7 °F - 64.0 °F 59% 29.96 in 10.0 mi SE 5.8 mph - N/A   Clear
8:15 AM 81.1 °F 82.8 °F 64.6 °F 57% 29.96 in 10.0 mi SE 6.9 mph - N/A   Clear
8:35 AM 82.6 °F 84.3 °F 64.8 °F 55% 29.96 in 10.0 mi SE 9.2 mph - N/A   Clear
8:55 AM 84.4 °F 85.9 °F 64.2 °F 51% 29.97 in 10.0 mi SSE 8.1 mph - N/A   Clear
9:15 AM - - - N/A% 29.97 in 10.0 mi SSE 8.1 mph - N/A   Unknown
9:35 AM 87.6 °F 88.5 °F 63.0 °F 44% 29.97 in 10.0 mi South 5.8 mph - N/A   Clear
9:55 AM 89.4 °F 89.5 °F 61.3 °F 39% 29.97 in 10.0 mi South 8.1 mph - N/A   Clear
10:15 AM 90.9 °F 90.9 °F 61.2 °F 37% 29.96 in 10.0 mi South 5.8 mph - N/A   Clear
10:35 AM 91.8 °F 91.9 °F 61.2 °F 36% 29.96 in 10.0 mi SSW 4.6 mph - N/A   Clear
10:55 AM 93.9 °F 93.6 °F 60.1 °F 32% 29.96 in 10.0 mi SW 10.4 mph - N/A   Clear
11:15 AM 95.9 °F 95.3 °F 59.2 °F 29% 29.96 in 10.0 mi SSW 6.9 mph - N/A   Clear
11:35 AM 97.3 °F 97.0 °F 58.8 °F 28% 29.96 in 10.0 mi WSW 6.9 mph - N/A   Clear
11:55 AM 98.2 °F 97.9 °F 58.5 °F 27% 29.96 in 10.0 mi South 6.9 mph - N/A   Clear
12:15 PM 99.1 °F 98.4 °F 57.9 °F 25% 29.96 in 10.0 mi SSE 8.1 mph - N/A   Clear
12:35 PM 99.7 °F 98.7 °F 57.0 °F 24% 29.96 in 10.0 mi South 11.5 mph - N/A   Clear
12:55 PM 100.4 °F 99.7 °F 57.2 °F 24% 29.95 in 10.0 mi SE 11.5 mph 17.3 mph N/A   Clear
1:15 PM 100.9 °F 100.0 °F 57.0 °F 23% 29.95 in 10.0 mi SSW 8.1 mph - N/A   Scattered Clouds
1:35 PM 101.5 °F 100.3 °F 56.3 °F 22% 29.94 in 10.0 mi South 10.4 mph - N/A   Scattered Clouds
1:55 PM 102.2 °F 100.9 °F 55.8 °F 21% 29.93 in 10.0 mi SE 8.1 mph 17.3 mph N/A   Clear
2:15 PM 102.4 °F 101.1 °F 55.9 °F 21% 29.93 in 10.0 mi ESE 8.1 mph - N/A   Clear
2:35 PM 103.5 °F 102.1 °F 55.0 °F 20% 29.92 in 10.0 mi SE 10.4 mph - N/A   Clear
3:15 PM 102.6 °F 101.4 °F 55.2 °F 21% 29.92 in 10.0 mi South 6.9 mph 19.6 mph N/A   Scattered Clouds
3:35 PM 102.7 °F 101.1 °F 54.5 °F 20% 29.91 in 10.0 mi SE 9.2 mph - N/A   Scattered Clouds
3:55 PM 103.1 °F 101.6 °F 54.3 °F 20% 29.91 in 10.0 mi SSE 15.0 mph 18.4 mph N/A   Scattered Clouds
4:35 PM 104.2 °F - 52.9 °F 18% 29.90 in 10.0 mi South 11.5 mph 16.1 mph N/A   Scattered Clouds
4:55 PM 104.2 °F 102.1 °F 53.4 °F 18% 29.89 in 10.0 mi SSE 9.2 mph 20.7 mph N/A   Scattered Clouds
5:15 PM 103.8 °F 102.1 °F 53.2 °F 19% 29.89 in 10.0 mi South 11.5 mph 18.4 mph N/A   Scattered Clouds
5:35 PM 102.7 °F 101.1 °F 53.8 °F 20% 29.89 in 10.0 mi SE 15.0 mph - N/A   Clear
5:55 PM 102.7 °F 100.6 °F 53.6 °F 19% 29.88 in 10.0 mi SSE 8.1 mph 17.3 mph N/A   Clear
6:15 PM 103.1 °F 101.1 °F 53.1 °F 19% 29.88 in 10.0 mi SE 12.7 mph - N/A   Clear
6:35 PM 103.1 °F 101.1 °F 53.2 °F 19% 29.88 in 10.0 mi SSE 10.4 mph - N/A   Clear
6:55 PM 102.2 °F 100.4 °F 53.4 °F 20% 29.87 in 10.0 mi SSE 12.7 mph - N/A   Clear
7:15 PM 102.0 °F 100.1 °F 53.6 °F 20% 29.88 in 10.0 mi SSE 12.7 mph - N/A   Clear
7:35 PM 102.4 °F 100.6 °F 53.6 °F 20% 29.88 in 10.0 mi SE 11.5 mph - N/A   Scattered Clouds
7:55 PM 102.0 °F 100.1 °F 53.6 °F 20% 29.88 in 10.0 mi SE 16.1 mph - N/A   Scattered Clouds
8:15 PM 101.1 °F 99.4 °F 54.0 °F 21% 29.88 in 10.0 mi SE 15.0 mph - N/A   Scattered Clouds
8:35 PM 100.0 °F 98.3 °F 54.5 °F 22% 29.89 in 10.0 mi SE 12.7 mph - N/A   Scattered Clouds
8:55 PM 98.8 °F 97.0 °F 54.5 °F 23% 29.89 in 10.0 mi SE 10.4 mph - N/A   Clear
9:15 PM 97.3 °F 95.5 °F 54.7 °F 24% 29.89 in 10.0 mi SE 6.9 mph - N/A   Clear
9:35 PM 95.9 °F 93.9 °F 55.0 °F 25% 29.90 in 10.0 mi ESE 8.1 mph - N/A   Clear
9:55 PM 95.0 °F 93.0 °F 55.4 °F 26% 29.90 in 10.0 mi ESE 8.1 mph - N/A   Clear
10:15 PM 93.9 °F 92.2 °F 55.8 °F 28% 29.91 in 10.0 mi SE 9.2 mph - N/A   Clear
10:35 PM 93.2 °F 91.6 °F 56.3 °F 29% 29.91 in 10.0 mi SE 9.2 mph - N/A   Clear
10:55 PM 92.3 °F 90.7 °F 56.8 °F 30% 29.92 in 10.0 mi SE 9.2 mph - N/A   Clear
11:15 PM 92.3 °F 91.0 °F 57.6 °F 31% 29.93 in 10.0 mi SE 10.4 mph - N/A   Clear
11:35 PM 91.9 °F 90.8 °F 57.7 °F 32% 29.93 in 10.0 mi SE 10.4 mph - N/A   Clear
11:55 PM 91.2 °F 89.9 °F 57.6 °F 32% 29.93 in 10.0 mi SE 11.5 mph - N/A   Clear